Back to Previous

Regional Weather Roundup

000
ASUS44 KLZK 011905
RWRLZK

WEATHER ROUNDUP FOR ARKANSAS
NATIONAL WEATHER SERVICE LITTLE ROCK AR
200 PM CDT WED OCT 01 2014

NOTE: "FAIR" INDICATES FEW OR NO CLOUDS BELOW 12,000 FEET WITH NO
SIGNIFICANT WEATHER AND/OR OBSTRUCTIONS TO VISIBILITY.

ARZ001-003-010-029-012000-
NORTHWEST ARKANSAS
  
CITY           SKY/WX    TMP DP  RH WIND       PRES   REMARKS
FAYETTEVILLE   PTSUNNY   82  68  62 S16       29.84F HX  85           
FORT SMITH     MOSUNNY   86  68  54 S10       29.80F HX  89           
HARRISON       MOSUNNY   85  68  56 S12       29.85F HX  88           
BENTONVILLE    PTSUNNY   84  66  54 S12G17    29.84F HX  86           
ROGERS         CLOUDY    82  66  58 S15       29.84F                  
SILOAM SPGS    MOSUNNY   84  66  54 S16G24    29.83F HX  86           
HIGHFILL       PTSUNNY   83  67  58 S13G25    29.82F HX  85           
SPRINGDALE     PTSUNNY   82  68  61 S13G24    29.86F HX  85           
$$

ARZ004-005-016-012000-
NORTH CENTRAL ARKANSAS
  
CITY           SKY/WX    TMP DP  RH WIND       PRES   REMARKS
BATESVILLE     PTSUNNY   84  68  58 S7        29.85F HX  87           
FLIPPIN        MOSUNNY   88  64  45 S8        29.84F HX  89           
MTN HOME       PTSUNNY   87  67  51 S8        29.84F HX  90           
$$

ARZ040-041-012000-
WEST CENTRAL ARKANSAS
  
CITY           SKY/WX    TMP DP  RH WIND       PRES   REMARKS
MENA           PTSUNNY   86  72  62 CALM      29.85F HX  92           
MOUNT IDA      MOSUNNY   84  70  62 VRB3      29.84F HX  88           
$$

ARZ009-017-025-026-028-012000-
NORTHEAST ARKANSAS
  
CITY           SKY/WX    TMP DP  RH WIND       PRES   REMARKS
CORNING        LGT RAIN  88  66  48 SW14      29.86F HX  90           
JONESBORO      MOSUNNY   89  66  46 S14       29.86F HX  91           
NEWPORT        MOSUNNY   89  69  51 S16       29.86F HX  93           
WALNUT RIDGE   SUNNY     90  66  45 S15       29.84F HX  92           
BLYTHEVILLE    MOSUNNY   89  64  43 S12       29.89F HX  90           
NW BLYTHEVILLE PTSUNNY   86  64  48 S8        29.88F HX  87           
$$

ARZ022-023-033-042-044-012000-
CENTRAL ARKANSAS
  
CITY           SKY/WX    TMP DP  RH WIND       PRES   REMARKS
LITTLE ROCK    PTSUNNY   85  69  58 S9        29.86F HX  89           
N LITTLE ROCK  PTSUNNY   85  72  65 SW9       29.86F HX  90           
JACKSONVILLE   MOSUNNY   85  70  60 S8        29.86F HX  90           
SEARCY         MOSUNNY   89  71  55 S10G17    29.87F HX  95           
HOT SPRINGS    PTSUNNY   84  71  65 SE7       29.86F HX  89           
RUSSELLVILLE   PTSUNNY   86  69  56 VRB6      29.83F HX  90           
CLINTON        PTSUNNY   86  72  62 SE7       29.85F HX  92           
$$

ARZ036-012000-
EAST ARKANSAS
  
CITY           SKY/WX    TMP DP  RH WIND       PRES   REMARKS
WEST MEMPHIS   MOSUNNY   88  68  51 S16       29.87F HX  91           
$$

ARZ050-053-066-070-073-012000-
SOUTHWEST ARKANSAS
  
CITY           SKY/WX    TMP DP  RH WIND       PRES   REMARKS
ARKADELPHIA    FAIR      88  74  63 S8        29.84F HX  96           
CAMDEN         MOSUNNY   91  66  43 SW12G20   29.84F HX  94           
TEXARKANA      MOSUNNY   86  70  58 S9        29.84F HX  90           
EL DORADO      MOSUNNY   86  70  58 S8G21     29.85F HX  90           
DE QUEEN       PTSUNNY   83  71  67 S9        29.83F HX  87           
$$

ARZ056-057-069-012000-
SOUTHEAST ARKANSAS
  
CITY           SKY/WX    TMP DP  RH WIND       PRES   REMARKS
PINE BLUFF     MOSUNNY   87  69  54 S10G18    29.85F HX  91           
STUTTGART      PTSUNNY  N/A N/A N/A SE12      29.87F                  
MONTICELLO     PTSUNNY   87  68  52 S8G18     29.86F HX  90           

$$



USA.gov is the U.S. government's official web portal to all federal, state and local government web resources and services.